DEBCT EDLO-EDXH

Flight info

Callsign DEBCT
Flight time 1h 5m
Altitude 6500
Route ABDIM DCT WI411 DCT AMCUB
Aircraft DA40/L-SBDGRY/S

Departure

Time 2026-04-21 12:36
Airport Oerlinghausen Airfield (EDLO)

Arrival

Time 2026-04-21 13:42
Airport Helgoland-Düne Airport (EDXH)
Time Latitude Longitude Altitude Speed Heading
2026-04-21 12:31 51.93261 8.66005 549 ft 0 kts 303°
2026-04-21 12:33 51.93263 8.66004 549 ft 2 kts 341°
2026-04-21 12:33 51.93258 8.66020 547 ft 3 kts 149°
2026-04-21 12:34 51.93241 8.66033 547 ft 4 kts 159°
2026-04-21 12:34 51.93194 8.66055 542 ft 12 kts 183°
2026-04-21 12:34 51.93146 8.66003 538 ft 9 kts 218°
2026-04-21 12:34 51.93083 8.65923 530 ft 16 kts 217°
2026-04-21 12:35 51.93010 8.65840 518 ft 4 kts 210°
2026-04-21 12:35 51.92969 8.65837 515 ft 4 kts 95°
2026-04-21 12:35 51.92978 8.65858 517 ft 7 kts 34°
2026-04-21 12:35 51.93139 8.66065 538 ft 50 kts 38°
2026-04-21 12:36 51.93473 8.66490 662 ft 64 kts 37°
2026-04-21 12:36 51.93848 8.66997 837 ft 73 kts 43°
2026-04-21 12:36 51.94204 8.67579 1129 ft 75 kts 49°
2026-04-21 12:36 51.94659 8.67720 1451 ft 79 kts 335°
2026-04-21 12:37 51.94968 8.66919 1652 ft 92 kts 303°
2026-04-21 12:37 51.95245 8.66010 1874 ft 91 kts 308°
2026-04-21 12:37 51.95588 8.65135 2127 ft 88 kts 316°
2026-04-21 12:37 51.96071 8.64561 2276 ft 86 kts 345°
2026-04-21 12:38 51.96633 8.64331 2414 ft 83 kts
2026-04-21 12:38 51.97212 8.64382 2552 ft 85 kts
2026-04-21 12:38 51.97799 8.64215 2768 ft 87 kts 355°
2026-04-21 12:38 51.98385 8.63936 2965 ft 87 kts 355°
2026-04-21 12:39 51.98973 8.63720 3197 ft 87 kts 354°
2026-04-21 12:39 51.99562 8.63477 3415 ft 88 kts 354°
2026-04-21 12:39 52.00163 8.63227 3583 ft 92 kts 354°
2026-04-21 12:39 52.00796 8.62960 3756 ft 94 kts 353°
2026-04-21 12:40 52.01426 8.62692 3937 ft 95 kts 353°
2026-04-21 12:40 52.02066 8.62412 4102 ft 95 kts 353°
2026-04-21 12:40 52.02712 8.62135 4295 ft 97 kts 353°
2026-04-21 12:40 52.03366 8.61854 4473 ft 98 kts 352°
2026-04-21 12:41 52.04029 8.61568 4696 ft 99 kts 352°
2026-04-21 12:41 52.04699 8.61277 4889 ft 100 kts 352°
2026-04-21 12:41 52.05376 8.60982 5084 ft 101 kts 352°
2026-04-21 12:41 52.06060 8.60694 5263 ft 102 kts 352°
2026-04-21 12:42 52.06740 8.60401 5486 ft 101 kts 353°
2026-04-21 12:42 52.07417 8.60113 5720 ft 101 kts 353°
2026-04-21 12:42 52.08095 8.59819 5915 ft 101 kts 353°
2026-04-21 12:42 52.08777 8.59526 6109 ft 101 kts 353°
2026-04-21 12:43 52.09457 8.59229 6286 ft 101 kts 354°
2026-04-21 12:43 52.10133 8.58943 6458 ft 102 kts 354°
2026-04-21 12:43 52.10847 8.58638 6501 ft 112 kts 353°
2026-04-21 12:43 52.11630 8.58301 6511 ft 120 kts 353°
2026-04-21 12:44 52.12477 8.57939 6511 ft 130 kts 352°
2026-04-21 12:44 52.13367 8.57555 6516 ft 135 kts 352°
2026-04-21 12:44 52.14282 8.57158 6509 ft 136 kts 351°
2026-04-21 12:44 52.15197 8.56755 6514 ft 136 kts 351°
2026-04-21 12:45 52.16117 8.56354 6511 ft 136 kts 351°
2026-04-21 12:45 52.17030 8.55963 6518 ft 136 kts 352°
2026-04-21 12:45 52.17929 8.55576 6620 ft 131 kts 351°
2026-04-21 12:45 52.18814 8.55191 6633 ft 132 kts 352°
2026-04-21 12:46 52.19707 8.54806 6692 ft 133 kts 352°
2026-04-21 12:46 52.20574 8.54428 6812 ft 128 kts 352°
2026-04-21 12:46 52.21437 8.54054 6816 ft 132 kts 352°
2026-04-21 12:46 52.22335 8.53668 6814 ft 135 kts 352°
2026-04-21 12:47 52.23248 8.53272 6814 ft 137 kts 352°
2026-04-21 12:47 52.24173 8.52871 6821 ft 138 kts 352°
2026-04-21 12:47 52.25111 8.52460 6818 ft 139 kts 351°
2026-04-21 12:47 52.26051 8.52051 6818 ft 141 kts 351°
2026-04-21 12:48 52.26990 8.51645 6819 ft 139 kts 352°
2026-04-21 12:48 52.27928 8.51238 6829 ft 140 kts 351°
2026-04-21 12:48 52.28870 8.50828 6822 ft 139 kts 352°
2026-04-21 12:48 52.29806 8.50421 6827 ft 139 kts 352°
2026-04-21 12:49 52.30747 8.50014 6826 ft 140 kts 352°
2026-04-21 12:49 52.31695 8.49597 6826 ft 141 kts 351°
2026-04-21 12:49 52.32643 8.49183 6827 ft 140 kts 351°
2026-04-21 12:49 52.33570 8.48777 6828 ft 138 kts 351°
2026-04-21 12:50 52.34500 8.48373 6832 ft 139 kts 352°
2026-04-21 12:50 52.35435 8.47968 6830 ft 138 kts 352°
2026-04-21 12:50 52.36361 8.47562 6829 ft 137 kts 351°
2026-04-21 12:50 52.37285 8.47157 6829 ft 138 kts 351°
2026-04-21 12:51 52.38215 8.46750 6838 ft 138 kts 351°
2026-04-21 12:51 52.39143 8.46345 6832 ft 138 kts 351°
2026-04-21 12:51 52.40071 8.45944 6833 ft 138 kts 352°
2026-04-21 12:51 52.41003 8.45537 6834 ft 139 kts 351°
2026-04-21 12:52 52.41933 8.45126 6843 ft 139 kts 352°
2026-04-21 12:52 52.42879 8.44712 6839 ft 141 kts 351°
2026-04-21 12:52 52.43826 8.44292 6840 ft 141 kts 351°
2026-04-21 12:52 52.44769 8.43884 6834 ft 139 kts 351°
2026-04-21 12:53 52.45699 8.43475 6837 ft 137 kts 351°
2026-04-21 12:53 52.46619 8.43071 6843 ft 137 kts 351°
2026-04-21 12:53 52.47544 8.42666 6841 ft 139 kts 352°
2026-04-21 12:53 52.48471 8.42253 6841 ft 141 kts 351°
2026-04-21 12:54 52.49410 8.41846 6837 ft 139 kts 352°
2026-04-21 12:54 52.50347 8.41435 6841 ft 140 kts 351°
2026-04-21 12:54 52.51290 8.41019 6846 ft 140 kts 351°
2026-04-21 12:54 52.52231 8.40604 6838 ft 139 kts 351°
2026-04-21 12:55 52.53164 8.40195 6844 ft 139 kts 352°
2026-04-21 12:55 52.54104 8.39782 6846 ft 141 kts 351°
2026-04-21 12:55 52.55048 8.39364 6837 ft 139 kts 352°
2026-04-21 12:55 52.55979 8.38954 6843 ft 140 kts 351°
2026-04-21 12:56 52.56918 8.38540 6844 ft 139 kts 351°
2026-04-21 12:56 52.57858 8.38128 6844 ft 139 kts 351°
2026-04-21 12:56 52.58792 8.37716 6839 ft 138 kts 351°
2026-04-21 12:56 52.59713 8.37305 6839 ft 137 kts 352°
2026-04-21 12:57 52.60639 8.36895 6840 ft 138 kts 351°
2026-04-21 12:57 52.61573 8.36483 6847 ft 140 kts 352°
2026-04-21 12:57 52.62509 8.36073 6842 ft 140 kts 352°
2026-04-21 12:57 52.63466 8.35650 6850 ft 141 kts 351°
2026-04-21 12:58 52.64405 8.35232 6846 ft 142 kts 351°
2026-04-21 12:58 52.65353 8.34812 6841 ft 139 kts 351°
2026-04-21 12:58 52.66282 8.34400 6842 ft 138 kts 351°
2026-04-21 12:58 52.67220 8.33985 6852 ft 142 kts 351°
2026-04-21 12:59 52.68173 8.33564 6841 ft 140 kts 351°
2026-04-21 12:59 52.69108 8.33145 6838 ft 138 kts 351°
2026-04-21 12:59 52.70035 8.32738 6839 ft 138 kts 352°
2026-04-21 12:59 52.70958 8.32329 6842 ft 137 kts 351°
2026-04-21 13:00 52.71873 8.31925 6848 ft 137 kts 352°
2026-04-21 13:00 52.72797 8.31518 6840 ft 137 kts 351°
2026-04-21 13:00 52.73699 8.31113 6842 ft 136 kts 351°
2026-04-21 13:00 52.74625 8.30701 6838 ft 140 kts 351°
2026-04-21 13:01 52.75556 8.30283 6841 ft 138 kts 351°
2026-04-21 13:01 52.76482 8.29873 6842 ft 139 kts 351°
2026-04-21 13:01 52.77417 8.29459 6840 ft 139 kts 351°
2026-04-21 13:01 52.78356 8.29043 6847 ft 140 kts 351°
2026-04-21 13:02 52.79289 8.28624 6849 ft 139 kts 351°
2026-04-21 13:02 52.80233 8.28205 6845 ft 141 kts 351°
2026-04-21 13:02 52.82109 8.27365 6850 ft 139 kts 351°
2026-04-21 13:03 52.83046 8.26948 6850 ft 140 kts 351°
2026-04-21 13:03 52.83992 8.26522 6847 ft 141 kts 351°
2026-04-21 13:03 52.84933 8.26105 6839 ft 139 kts 351°
2026-04-21 13:03 52.85858 8.25683 6836 ft 136 kts 351°
2026-04-21 13:04 52.86771 8.25277 6839 ft 135 kts 351°
2026-04-21 13:04 52.87669 8.24879 6842 ft 136 kts 352°
2026-04-21 13:04 52.88587 8.24480 6843 ft 137 kts 352°
2026-04-21 13:04 52.89524 8.24061 6848 ft 141 kts 351°
2026-04-21 13:05 52.90466 8.23634 6846 ft 140 kts 351°
2026-04-21 13:05 52.91418 8.23208 6841 ft 142 kts 351°
2026-04-21 13:05 52.92361 8.22779 6845 ft 140 kts 351°
2026-04-21 13:05 52.93295 8.22358 6842 ft 138 kts 351°
2026-04-21 13:06 52.94220 8.21946 6844 ft 137 kts 351°
2026-04-21 13:06 52.95151 8.21528 6845 ft 140 kts 351°
2026-04-21 13:06 52.96091 8.21106 6844 ft 140 kts 351°
2026-04-21 13:06 52.97025 8.20687 6842 ft 138 kts 351°
2026-04-21 13:07 52.97936 8.20277 6841 ft 136 kts 351°
2026-04-21 13:07 52.98850 8.19866 6839 ft 136 kts 352°
2026-04-21 13:07 52.99757 8.19458 6842 ft 135 kts 352°
2026-04-21 13:07 53.00659 8.19051 6840 ft 134 kts 352°
2026-04-21 13:08 53.01557 8.18641 6845 ft 134 kts 351°
2026-04-21 13:08 53.02467 8.18234 6850 ft 137 kts 352°
2026-04-21 13:08 53.03397 8.17824 6843 ft 138 kts 351°
2026-04-21 13:08 53.04325 8.17457 6848 ft 136 kts
2026-04-21 13:09 53.05258 8.17538 6843 ft 134 kts 10°
2026-04-21 13:09 53.06187 8.17628 6849 ft 133 kts
2026-04-21 13:09 53.07125 8.17717 6843 ft 137 kts 10°
2026-04-21 13:09 53.08068 8.17812 6845 ft 135 kts
2026-04-21 13:10 53.09005 8.17888 6843 ft 134 kts
2026-04-21 13:10 53.09935 8.17986 6844 ft 134 kts 10°
2026-04-21 13:10 53.10862 8.18088 6844 ft 133 kts
2026-04-21 13:10 53.11792 8.18184 6853 ft 135 kts
2026-04-21 13:11 53.12737 8.18271 6843 ft 135 kts
2026-04-21 13:11 53.13671 8.18366 6847 ft 134 kts 10°
2026-04-21 13:11 53.14596 8.18466 6844 ft 136 kts
2026-04-21 13:11 53.15538 8.18551 6844 ft 136 kts
2026-04-21 13:12 53.16478 8.18640 6843 ft 135 kts
2026-04-21 13:12 53.17408 8.18734 6844 ft 134 kts 10°
2026-04-21 13:12 53.18342 8.18830 6841 ft 134 kts
2026-04-21 13:12 53.19268 8.18918 6843 ft 132 kts
2026-04-21 13:13 53.20188 8.19009 6844 ft 132 kts 10°
2026-04-21 13:13 53.21101 8.19099 6850 ft 132 kts 10°
2026-04-21 13:13 53.22022 8.19192 6849 ft 133 kts
2026-04-21 13:13 53.22958 8.19286 6850 ft 136 kts
2026-04-21 13:14 53.23896 8.19379 6845 ft 134 kts
2026-04-21 13:14 53.24830 8.19470 6845 ft 134 kts 10°
2026-04-21 13:14 53.25754 8.19559 6843 ft 132 kts
2026-04-21 13:14 53.26662 8.19650 6844 ft 130 kts 10°
2026-04-21 13:15 53.27556 8.19740 6844 ft 130 kts 10°
2026-04-21 13:15 53.28463 8.19834 6849 ft 131 kts 10°
2026-04-21 13:15 53.29380 8.19926 6847 ft 132 kts
2026-04-21 13:15 53.30292 8.20017 6849 ft 131 kts 10°
2026-04-21 13:16 53.31198 8.20106 6847 ft 130 kts 10°
2026-04-21 13:16 53.32097 8.20195 6847 ft 129 kts
2026-04-21 13:16 53.32994 8.20285 6847 ft 129 kts 10°
2026-04-21 13:16 53.33887 8.20380 6851 ft 131 kts
2026-04-21 13:17 53.34801 8.20468 6848 ft 132 kts
2026-04-21 13:17 53.35713 8.20559 6847 ft 130 kts
2026-04-21 13:17 53.36624 8.20649 6849 ft 132 kts
2026-04-21 13:17 53.37542 8.20744 6853 ft 134 kts 10°
2026-04-21 13:18 53.38469 8.20842 6853 ft 133 kts 10°
2026-04-21 13:18 53.39395 8.20929 6853 ft 133 kts
2026-04-21 13:18 53.40319 8.21021 6853 ft 133 kts 10°
2026-04-21 13:18 53.41271 8.21119 6697 ft 140 kts
2026-04-21 13:19 53.42242 8.21214 6632 ft 139 kts
2026-04-21 13:19 53.43207 8.21311 6544 ft 139 kts
2026-04-21 13:19 53.44139 8.21405 6463 ft 139 kts
2026-04-21 13:19 53.45103 8.21502 6375 ft 139 kts
2026-04-21 13:20 53.45742 8.21566 6321 ft 139 kts 10°
2026-04-21 13:20 53.47031 8.21696 6202 ft 139 kts 10°
2026-04-21 13:20 53.47995 8.21794 6112 ft 139 kts 10°
2026-04-21 13:20 53.48634 8.21857 6051 ft 139 kts 10°
2026-04-21 13:21 53.49915 8.21986 5941 ft 139 kts 10°
2026-04-21 13:21 53.50879 8.22083 5865 ft 138 kts 10°
2026-04-21 13:21 53.51838 8.22180 5787 ft 138 kts 10°
2026-04-21 13:21 53.52797 8.22277 5708 ft 138 kts 10°
2026-04-21 13:22 53.53446 8.22342 5645 ft 138 kts 10°
2026-04-21 13:22 53.54396 8.22438 5568 ft 139 kts 10°
2026-04-21 13:22 53.55359 8.22537 5490 ft 138 kts 10°
2026-04-21 13:22 53.56321 8.22631 5420 ft 138 kts
2026-04-21 13:23 53.57275 8.22727 5356 ft 137 kts 10°
2026-04-21 13:23 53.58233 8.22804 5273 ft 140 kts
2026-04-21 13:23 53.59197 8.22405 5204 ft 145 kts 347°
2026-04-21 13:23 53.60148 8.21872 5125 ft 144 kts 349°
2026-04-21 13:24 53.61102 8.21357 5051 ft 143 kts 349°
2026-04-21 13:24 53.62047 8.20843 4979 ft 142 kts 349°
2026-04-21 13:24 53.62987 8.20329 4903 ft 142 kts 349°
2026-04-21 13:24 53.63929 8.19815 4827 ft 142 kts 349°
2026-04-21 13:25 53.64873 8.19299 4750 ft 143 kts 349°
2026-04-21 13:25 53.65819 8.18782 4680 ft 143 kts 349°
2026-04-21 13:25 53.66764 8.18265 4602 ft 143 kts 349°
2026-04-21 13:25 53.67709 8.17747 4529 ft 143 kts 349°
2026-04-21 13:26 53.68645 8.17233 4515 ft 139 kts 349°
2026-04-21 13:26 53.69555 8.16732 4512 ft 136 kts 349°
2026-04-21 13:26 53.70451 8.16241 4513 ft 135 kts 349°
2026-04-21 13:26 53.71341 8.15754 4516 ft 134 kts 350°
2026-04-21 13:27 53.72234 8.15265 4514 ft 135 kts 350°
2026-04-21 13:27 53.73108 8.14793 4514 ft 133 kts 350°
2026-04-21 13:27 53.73989 8.14308 4511 ft 132 kts 350°
2026-04-21 13:27 53.74859 8.13825 4509 ft 132 kts 350°
2026-04-21 13:28 53.75728 8.13345 4508 ft 131 kts 350°
2026-04-21 13:28 53.76600 8.12865 4515 ft 132 kts 350°
2026-04-21 13:28 53.77472 8.12386 4514 ft 132 kts 350°
2026-04-21 13:28 53.78347 8.11904 4514 ft 132 kts 350°
2026-04-21 13:29 53.79222 8.11422 4518 ft 132 kts 350°
2026-04-21 13:29 53.80100 8.10938 4508 ft 133 kts 350°
2026-04-21 13:29 53.80978 8.10454 4507 ft 133 kts 350°
2026-04-21 13:29 53.81854 8.09970 4505 ft 132 kts 350°
2026-04-21 13:30 53.82715 8.09496 4504 ft 131 kts 350°
2026-04-21 13:30 53.83584 8.09016 4503 ft 131 kts 350°
2026-04-21 13:30 53.84449 8.08539 4509 ft 131 kts 350°
2026-04-21 13:30 53.85317 8.08059 4506 ft 131 kts 350°
2026-04-21 13:31 53.86182 8.07581 4507 ft 131 kts 350°
2026-04-21 13:31 53.87046 8.07103 4504 ft 131 kts 350°
2026-04-21 13:31 53.87911 8.06625 4508 ft 131 kts 350°
2026-04-21 13:31 53.88775 8.06147 4508 ft 131 kts 350°
2026-04-21 13:32 53.89642 8.05667 4509 ft 131 kts 350°
2026-04-21 13:32 53.90512 8.05186 4506 ft 131 kts 350°
2026-04-21 13:32 53.91381 8.04704 4508 ft 132 kts 350°
2026-04-21 13:32 53.92252 8.04221 4511 ft 132 kts 350°
2026-04-21 13:33 53.93122 8.03738 4509 ft 132 kts 350°
2026-04-21 13:33 53.93992 8.03255 4509 ft 132 kts 350°
2026-04-21 13:33 53.94850 8.02778 4511 ft 131 kts 350°
2026-04-21 13:33 53.95716 8.02297 4509 ft 131 kts 350°
2026-04-21 13:34 53.96581 8.01816 4508 ft 131 kts 350°
2026-04-21 13:34 53.97445 8.01336 4510 ft 130 kts 350°
2026-04-21 13:34 53.98326 8.00851 4379 ft 136 kts 351°
2026-04-21 13:34 53.99245 8.00438 4227 ft 138 kts 353°
2026-04-21 13:35 54.00179 8.00009 4073 ft 140 kts 352°
2026-04-21 13:35 54.01118 7.99576 3917 ft 139 kts 353°
2026-04-21 13:35 54.02047 7.99149 3762 ft 138 kts 353°
2026-04-21 13:35 54.02965 7.98730 3608 ft 135 kts 353°
2026-04-21 13:36 54.03862 7.98319 3451 ft 132 kts 353°
2026-04-21 13:36 54.04741 7.97917 3290 ft 129 kts 353°
2026-04-21 13:36 54.05593 7.97527 3135 ft 125 kts 353°
2026-04-21 13:36 54.06427 7.97145 2976 ft 123 kts 353°
2026-04-21 13:37 54.07250 7.96769 2819 ft 122 kts 353°
2026-04-21 13:37 54.08054 7.96400 2666 ft 120 kts 352°
2026-04-21 13:37 54.08861 7.96030 2512 ft 119 kts 352°
2026-04-21 13:37 54.09658 7.95684 2370 ft 117 kts 355°
2026-04-21 13:38 54.10457 7.95456 2217 ft 116 kts 359°
2026-04-21 13:38 54.11253 7.95271 2077 ft 114 kts
2026-04-21 13:38 54.12049 7.95212 1923 ft 114 kts
2026-04-21 13:38 54.12828 7.95293 1778 ft 112 kts 12°
2026-04-21 13:39 54.13588 7.95436 1662 ft 110 kts 13°
2026-04-21 13:39 54.14330 7.95728 1494 ft 110 kts 24°
2026-04-21 13:39 54.15004 7.96316 1353 ft 107 kts 32°
2026-04-21 13:39 54.15652 7.96953 1131 ft 110 kts 34°
2026-04-21 13:40 54.16389 7.97285 930 ft 113 kts 359°
2026-04-21 13:40 54.17095 7.96622 703 ft 122 kts 313°
2026-04-21 13:40 54.17447 7.95375 668 ft 111 kts 298°
2026-04-21 13:40 54.17772 7.94224 581 ft 104 kts 301°
2026-04-21 13:41 54.18031 7.93156 659 ft 90 kts 275°
2026-04-21 13:41 54.17549 7.92600 585 ft 94 kts 197°
2026-04-21 13:41 54.17199 7.91819 480 ft 84 kts 278°
2026-04-21 13:41 54.17490 7.91111 346 ft 72 kts 338°
2026-04-21 13:42 54.17948 7.91052 210 ft 65 kts 18°
2026-04-21 13:42 54.18343 7.91330 61 ft 59 kts 25°
2026-04-21 13:42 54.18647 7.91584 4 ft 22 kts 26°
2026-04-21 13:42 54.18701 7.91581 4 ft 5 kts 344°
2026-04-21 13:43 54.18728 7.91580 4 ft 5 kts 23°
2026-04-21 13:43 54.18741 7.91593 4 ft 2 kts 52°
2026-04-21 13:43 54.18740 7.91603 4 ft 1 kts 122°
2026-04-21 13:43 54.18739 7.91607 4 ft 0 kts 121°